User: anonymous   Login
Location: Melbourne
(37.8666°S, 145.1333°E)
Time: 22:09:45
(UTC+10:00)
Language:

ATLAS CENTAUR R/B - Orbit

View from above orbital plane
View from above orbital plane
View from above satellite
View from above satellite

Ground track
Ground track

The orbit data is extracted from the following two-line orbital elements,

1 28385U 04034B   17231.89504627 0.00053000  00000-0  72807-3 0    00
2 28385  57.3059 191.6279 3524886 169.5091 190.4909  8.45278884    05
Epoch (UTC): 19 August 2017 21:28:51
Eccentricity: 0.3524886
inclination: 57.3059°
perigee height: 213 km
apogee height: 7390 km
right ascension of ascending node: 191.6279°
argument of perigee: 169.5091°
revolutions per day: 8.45278884
mean anomaly at epoch: 190.4909°
orbit number at epoch: 0

The dashed part of the orbit path shows where the satellite is in the earth's shadow,  

DLR